Location: La Brionne
(46.1728°N, 1.7849°E)
Time: 17:34:17
(UTC+00:00)

USA 215 - Pass Details

Date: 24 October 2021
Orbit: 1099 x 1109 km, 123.0° (Epoch: 20 November)

Event Time Altitude Azimuth Distance (km) Brightness Sun altitude
Exits shadow 20:55:56 30° 336° (NNW) 1,855 4.7 -41.9°
Drops below altitude 10° 20:59:58 10° 303° (WNW) 2,965 6.1 -42.5°
Sets 21:02:40 0° 295° (WNW) 3,925 7.0 -42.9°
